Weather in Taungoo

Myanmar     18°56′20″N   96°26′17″E
temp.,
°C
wind,
m/s
gust,
m/s
humid.,
%
clouds,
%
prec.,
mm/h
press.,
hPa
HPBL,
m
13 april, tue
tue1300:30+23se228373 1.2 101172
03:30+23e22845 0.3 101152
06:30+23ese12785 0.3 101271
09:30+31s3452100 0.0 1013811
12:30+37s33355 0.0 10101943
15:30+38se34278 0.0 10052646
18:30+27e7106877 0.5 1007241
21:30+25se35822 0.6 1010131
14 april, wed
wed1400:30+24e238337 0.9 101087
03:30+24ese228366 0.0 100961
06:30+24se23806 0.0 1011121
09:30+32s45465 0.0 1012967
12:30+37s44299 0.0 10091727
15:30+38se3325100 0.0 10052085
18:30+32e3439100 0.0 100559
21:30+28se474914 0.0 1008228
15 april, thu
thu1500:30+27se376483 0.0 1009331
03:30+25ese2372100 0.0 100895
06:30+25se247398 0.0 1010166
09:30+32s454376 0.0 10111128
12:30+37s442845 0.0 10081776
15:30+38sse33235 0.0 10042280
18:30+33sse2434100 0.0 1005108
21:30+30sse5114484 0.0 1009575
16 april, fri
fri1600:30+26se37674 0.0 1009296
03:30+25ese22714 0.0 100880
06:30+25se127123 0.0 1010109
09:30+32s355068 0.0 10111158
12:30+38s4425100 0.0 10081923
15:30+39sse35206 0.0 10043008
18:30+34ese222953 0.0 100426
21:30+29sse4114620 0.0 1008444
17 april, sat
sat1700:30+27se37615 0.0 1009270
03:30+24ese228038 0.6 100957
06:30+24e128163 0.6 101191
09:30+32s224914 0.0 1012962
12:30+37s333199 0.0 10091858
15:30+37sse5527100 0.0 10062690
18:30+26ne2470100 1.1 100899
21:30+24ssw368294 1.3 1012187